sat.trackr.live / text

‹ back to catalog

AC1-001

NORAD 66744 · 2025-276CG

PAYLOAD ACTIVE UNKNOWN

§ Identity

Operator
Country
UK
Launch date
2025-11-28
Launch site
AFWTR
Launch vehicle
Mass (kg)
RCS (m²)

External: N2YO · Heavens-Above · Gunter

§ Orbital elements

Epoch: 2026-05-24T18:37:14.790432Z

Period
94.85 min
Inclination
97.4211°
Eccentricity
0.0004520
Mean motion
15.18224402 rev/d
Perigee alt
508.1 km
Apogee alt
514.3 km
Semi-major
6,889.3 km
B*
9.4015e-5
RAAN
218.5488°
Arg perigee
87.8940°
Mean anomaly
272.2812°
Rev number
2,685

§ Raw data

AC1-0011 66744U 25276CG  26144.77586563  .00001857  00000+0  94015-4 0  99962 66744  97.4211 218.5488 0004520  87.8940 272.2812 15.18224402 26850

JSON: /api/v1/satellites/66744 · /tle

For live sub-satellite position, see the globe view (requires WebGL).

§ Visibility from observer

Set your observer location to see the next 7 days of passes ≥ 10°. The values pass through the URL so the page stays shareable.

No JS? Fill the form by hand. The geolocation button needs JavaScript.